Location: Unspecified
(0.0000°N, 0.0000°E)
Time: 07:50:48
(UTC+02:00)

ATLAS V CENTAUR R/B - Visible Passes

Search period start: 04 September 2015 00:00
Search period end: 14 September 2015 00:00
Orbit: 253 x 29305 km, 18.2° (Epoch: 02 September)

Date Brightness Start Highest point End Pass type
(mag) Time Alt. Az. Time Alt. Az. Time Alt. Az.
04 Sep 2.9 06:31:08 56° W 06:31:50 72° NNW 06:34:15 10° ENE visible
04 Sep 8.4 15:25:15 10° WNW 15:53:09 73° NNE 22:51:07 42° SE visible
05 Sep 8.7 17:03:04 10° WNW 00:11:48 62° S 00:22:44 61° S visible
06 Sep 8.9 18:44:57 10° WNW 01:54:15 48° SW 01:54:15 48° SW visible
07 Sep 9.2 20:38:40 10° W 03:25:42 22° WSW 03:25:42 22° WSW visible
08 Sep 6.9 12:52:40 10° NW 13:02:11 44° NNE 20:19:18 10° ESE visible
09 Sep 5.6 05:37:06 17° ENE 05:37:06 17° ENE 05:37:39 10° ENE visible
09 Sep 7.9 14:27:42 10° WNW 14:46:22 66° NNE 21:58:12 27° ESE visible
10 Sep 3.8 07:08:17 16° WNW 07:09:50 21° NNW 07:11:30 10° NNE visible
10 Sep 8.6 16:04:03 10° WNW 16:51:22 85° NNE 23:29:26 52° SE visible
11 Sep 8.6 17:43:08 10° WNW 01:00:36 59° SSW 01:00:36 59° SSW visible
12 Sep 8.9 19:29:00 10° W 02:31:40 36° WSW 02:31:40 36° WSW visible
